This demonstration page uses our WeatherBlox Daily Observations layout. Learn more.

Left ArrowRight Arrow

38.20091, -84.87328

Hourly Observations for August 9, 2022

Temp ( °F °C ) Dew Point ( °F °C ) Humidity (%) Winds ( mph kmh ) Pressure ( in mb ) Visibility ( mi km ) Precip ( " mm )
12:53 am 00:53 Partly Cloudy 79 26.1 74 23.3 85 85 SSW 6 9 30.01 1016 10 16 0.00 0.00
1:53 am 01:53 Mostly Clear 77 25 74 23.3 90 90 SW 6 9 30.01 1016 10 16 0.00 0.00
2:53 am 02:53 Mostly Clear 76 24.4 73 22.8 91 91 SW 6 9 30.00 1016 10 16 0.00 0.00
3:53 am 03:53 Clear 76 24.4 73 22.8 91 91 SW 8 13 30.00 1016 10 16 0.00 0.00
4:53 am 04:53 Clear 75 23.9 72 22.2 90 90 SSW 8 13 30.00 1016 10 16 0.00 0.00
5:53 am 05:53 Clear 74 23.3 72 22.2 94 94 SW 6 9 30.01 1016 10 16 0.00 0.00
6:53 am 06:53 Sunny 74 23.3 72 22.2 94 94 SSW 7 11 30.02 1017 10 16 0.00 0.00
7:53 am 07:53 Sunny 75 23.9 72 22.2 90 90 WSW 5 7 30.02 1017 10 16 0.00 0.00
8:53 am 08:53 Sunny 78 25.6 73 22.8 85 85 SW 6 9 30.04 1017 10 16 0.00 0.00
9:53 am 09:53 Sunny 81 27.2 73 22.8 77 77 SW 5 7 30.04 1017 10 16 0.00 0.00
10:53 am 10:53 Sunny 83 28.3 73 22.8 72 72 WSW 8 13 30.05 1018 10 16 0.00 0.00
11:53 am 11:53 Mostly Sunny 85 29.4 73 22.8 68 68 SSW 7 11 30.05 1018 10 16 0.00 0.00
12:53 pm 12:53 Mostly Sunny 86 30 73 22.8 65 65 SW 9 15 30.05 1018 10 16 0.00 0.00
1:53 pm 13:53 Mostly Sunny 87 30.6 72 22.2 61 61 W 7 11 30.04 1017 10 16 0.00 0.00
2:53 pm 14:53 Mostly Cloudy 88 31.1 73 22.8 61 61 SW 8 13 30.01 1016 10 16 0.00 0.00
3:53 pm 15:53 Mostly Sunny 90 32.2 73 22.8 58 58 SW 13 20 29.99 1016 10 16 0.00 0.00
4:53 pm 16:53 Mostly Cloudy 90 32.2 73 22.8 58 58 SW 10 17 29.98 1015 10 16 0.00 0.00
5:50 pm 17:50 Partly Cloudy with Nearby Thunderstorms 90 32 73 23 59 59 SSW 10 17 29.96 1014 10 16 0.00 0.00
5:53 pm 17:53 Partly Cloudy with Nearby Thunderstorms 89 31.7 73 22.8 59 59 SW 13 20 29.98 1015 10 16 0.00 0.00
6:05 pm 18:05 Mostly Sunny 89 31.7 73 22.8 59 59 SSW 8 13 29.95 1014 10 16 0.00 0.00
6:53 pm 18:53 Partly Cloudy with Nearby Thunderstorms 86 30 73 22.8 65 65 S 10 17 29.98 1015 10 16 0.00 0.00
7:15 pm 19:15 Mostly Cloudy with Heavy Rain 80 26.7 74 23.3 82 82 SSW 9 15 29.98 1015 1 1 0.18 4.57
7:25 pm 19:25 Mostly Cloudy with Nearby Thunderstorms 80 26.7 74 23.3 82 82 Calm 29.97 1015 2 3 0.22 5.59
7:28 pm 19:28 Cloudy with Thunderstorms 80 26.7 74 23.3 82 82 undefined N/A 29.98 1015 5 8 0.22 5.59
7:38 pm 19:38 Cloudy with Thunderstorms 78 25.6 75 23.9 90 90 NNW 12 19 30.00 1016 10 16 0.22 5.59
7:53 pm 19:53 Cloudy with Thunderstorms 77 25 74 23.3 90 90 N 10 17 30.01 1016 10 16 0.22 5.59
8:06 pm 20:06 Mostly Cloudy with Thunderstorms 77 25 74 23.3 90 90 N 7 11 30.01 1016 10 16 0.00 0.00
8:21 pm 20:21 Partly Cloudy with Nearby Thunderstorms 76 24.4 73 22.8 91 91 NNE 6 9 30.01 1016 10 16 0.00 0.00
8:35 pm 20:35 Partly Cloudy 76 24.4 73 22.8 91 91 VRB 3 6 30.02 1017 10 16 0.00 0.00
8:53 pm 20:53 Mostly Cloudy 76 24.4 73 22.8 91 91 N 3 6 30.02 1017 10 16 0.00 0.00
9:09 pm 21:09 Mostly Cloudy with Nearby Thunderstorms 76 24.4 73 22.8 91 91 NW 5 7 30.01 1016 10 16 0.00 0.00
9:35 pm 21:35 Cloudy with Strong Thunderstorms 73 22.8 70 21.1 90 90 SW 22 35 30.07 1018 1 2 0.34 8.64
9:41 pm 21:41 Cloudy with Strong Thunderstorms 73 22.8 68 20 84 84 SSW 14 22 30.06 1018 1 2 0.49 12.45
9:53 pm 21:53 Cloudy with Strong Thunderstorms 72 22.2 69 20.6 91 91 NNW 8 13 30.05 1018 2 2 0.65 16.51
9:58 pm 21:58 Mostly Cloudy with Thunderstorms 72 22.2 70 21.1 93 93 VRB 5 7 30.05 1018 3 5 0.01 0.25
10:19 pm 22:19 Mostly Cloudy with Nearby Thunderstorms 72 22.2 70 21.1 93 93 E 5 7 30.05 1018 10 16 0.01 0.25
10:29 pm 22:29 Mostly Cloudy 72 22.2 70 21.1 93 93 E 3 6 30.06 1018 10 16 0.01 0.25
10:53 pm 22:53 Partly Cloudy 72 22.2 70 21.1 93 93 SE 3 6 30.07 1018 10 16 0.01 0.25
11:53 pm 23:53 Clear with Light Rain 72 22.2 70 21.1 93 93 Calm 30.06 1018 10 16 0.01 0.25

Powered by AerisWeather